Flag for Switzerland Weather past 2 weeks in Bellinzona, Ticino, Switzerland

Now
43 °F

Quite cool.


Feels Like: 43 °F
Forecast: 27 / 45 °F
Wind: 2 mph from Southwest

Location: Locarno-Magadino

Current Time: Feb 1, 2015 at 2:16:49 PM

Latest Report: Feb 1, 2015 at 1:00 PM


Visibility: N/A

Pressure: 29.26 "Hg

Humidity: 36%

Dew point: 18 °F

Location of BellinzonaLocation

Historic Weather in Bellinzona — Graph

°F

Bellinzona temperature yesterday

Maximum temperature yesterday: 43 °F (at 2:00 PM)
Minimum temperature yesterday: 29 °F (at 9:00 AM)
Average temperature yesterday: 35 °F

Past Weeks' High & Low Weather Summary

 TemperatureHumidityPressure
High54 °F (Jan 23, 3:00 PM)100% (Jan 18, 6:00 AM)30.31 "Hg (Jan 18, 6:00 AM)
Low25 °F (Feb 1, 7:00 AM)16% (Jan 24, 7:00 PM)28.85 "Hg (Jan 30, 1:00 PM)
Average37 °F69%29.82 "Hg
* Reported Jan 17 1:00 PM — Feb 1 1:00 PM, Bellinzona, Weather by CustomWeather, © 2014

Note: Actual official high and low records may vary slightly from our data, if they occured in-between our weather recording intervals... More about our weather records

Advertising

Bellinzona weather history for previous 24 hours

 ConditionsComfort  
Time TempWeatherWind HumidityBarometerVisibility
1:00 PM
Feb 1
43 °FQuite cool.2 mph36%29.26 "HgN/A
12:00 PM40 °FChilly.3 mph43%29.29 "HgN/A
11:00 AM36 °FChilly.3 mph54%29.29 "HgN/A
10:00 AM33 °FChilly.No wind66%29.29 "HgN/A
9:00 AM28 °FChilly.3 mph73%29.29 "HgN/A
8:00 AM26 °FChilly.5 mph81%29.26 "HgN/A
7:00 AM25 °FCold.3 mph87%29.26 "HgN/A
6:00 AM26 °FChilly.1 mph88%29.23 "HgN/A
5:00 AM27 °FChilly.1 mph86%29.23 "HgN/A
4:00 AM26 °FChilly.2 mph90%29.23 "HgN/A
3:00 AM27 °FChilly.1 mph90%29.23 "HgN/A
2:00 AM27 °FChilly.1 mph92%29.23 "HgN/A
1:00 AM29 °FChilly.3 mph83%29.23 "HgN/A
12:00 AM31 °FChilly.3 mph80%29.23 "HgN/A
11:00 PM
Jan 31
29 °FChilly.1 mph88%29.23 "HgN/A
10:00 PM31 °FChilly.2 mph82%29.23 "HgN/A
9:00 PM31 °FChilly.1 mph83%29.21 "HgN/A
8:00 PM32 °FChilly.1 mph81%29.21 "HgN/A
7:00 PM33 °FChilly.2 mph78%29.18 "HgN/A
6:00 PM36 °FChilly.3 mph67%29.15 "HgN/A
5:00 PM40 °FQuite cool.No wind50%29.12 "HgN/A
4:00 PM42 °FQuite cool.5 mph48%29.12 "HgN/A
3:00 PM43 °FQuite cool.6 mph45%29.12 "HgN/A
2:00 PM43 °FQuite cool.7 mph44%29.12 "HgN/A
Weather by CustomWeather, © 2014

See weather overviewHow to use our weather pages